[[{"header":{"parameterUnit":"m.s-1","parameterCategory":1,"la1":30.2991,"la2":30.254,"lo1":-89.0895,"lo2":-89.0444,"dy":0.0017,"dx":0.0017,"nx":28,"ny":28,"refTime":"2025-08-28T09:00:00:Z","depth":0,"parameterNumber":2,"parameterNumberName":"U-component_of_WINDS"},"data":[0,0,0,0,0,0,0,0,0,0,0,0,0,0,0,0,0,0,0,0,0,0,0,0,0,0,0,0,0,0,0,0,0,0,0,0,0,0,0,0,0,0,0,0,0,0,0,0,0,0,0,0,0,0,0,0,0,0,3.4005,3.4004,0,3.3873,3.3871,3.387,3.3735,3.3733,3.3731,3.3729,3.3591,3.3589,3.3587,0,0,0,0,0,0,0,0,0,0,0,0,0,3.4138,3.4137,3.4006,3.4004,3.4002,3.3873,3.3871,3.3869,3.3735,3.3733,3.373,3.3728,3.3591,3.3589,3.3587,0,0,0,0,0,0,0,0,0,0,0,0,0,3.4051,3.4136,3.4006,3.392,3.3911,3.3873,3.3871,3.3869,3.3735,3.3733,3.373,3.3727,3.3592,3.3589,3.3586,3.3622,0,0,3.3577,3.3576,0,0,0,0,0,0,0,0,3.4056,3.4046,3.3934,3.3926,3.3915,3.3817,3.3867,3.3786,3.3736,3.3802,3.3729,3.3726,3.3668,3.3659,3.364,3.3616,3.361,3.3577,3.3575,3.3574,3.3573,0,0,0,0,0,0,0,3.4062,3.4051,3.3953,3.3933,3.3921,3.3886,3.3871,3.3851,3.3752,3.3796,3.3786,3.3772,3.3663,3.3643,3.3636,3.3608,3.3577,3.3574,3.3573,3.3571,3.3601,3.3604,0,0,0,0,0,0,3.4082,3.4057,3.3957,3.3949,3.398,3.3886,3.3869,3.3852,3.3752,3.3734,3.3775,3.3766,3.3649,3.3639,3.363,3.3662,3.3574,3.3571,3.3569,3.3599,3.3602,3.3605,0,0,0,0,0,0,3.4085,3.4074,3.3962,3.4,3.3983,3.3887,3.3868,3.385,3.3831,3.3736,3.3717,3.3773,3.3647,3.3634,3.3624,3.3655,3.357,3.3567,3.3596,3.36,3.3603,3.3728,0,0,0,0,0,0,3.409,3.4076,3.409,3.4001,3.3982,3.3961,3.387,3.385,3.3826,3.3814,3.3729,3.3712,3.3644,3.3629,3.3621,3.3649,3.3565,3.3592,3.3597,3.3602,3.3721,3.3736,3.3749,0,0,0,0,0,3.4095,3.4131,3.4092,3.408,3.3997,3.3963,3.3951,3.3872,3.3829,3.3841,3.3779,3.3715,3.3654,3.363,3.3619,3.3647,3.359,3.3596,3.3602,3.3714,3.3733,3.3748,0,0,0,0,0,0,3.4226,3.4118,3.4073,3.4082,3.4033,3.394,3.3953,3.3895,3.3856,3.3846,3.3749,3.3731,3.3731,3.3688,3.3663,3.3674,3.3612,3.3617,3.3702,3.3718,3.3732,3.3741,3.3562,0,0,0,0,0,3.4256,3.4239,3.4145,3.4162,3.4139,3.4051,3.4033,3.3976,3.392,3.3899,3.3836,3.3784,3.3752,3.3733,3.3699,3.3714,3.3691,3.3728,3.3742,3.3754,3.3758,3.3758,3.3772,3.3624,3.3624,3.3624,0,0,3.4318,3.4257,3.4252,3.4186,3.4141,3.4123,3.4034,3.4019,3.4004,3.3896,3.3882,3.3834,3.3769,3.3771,3.3768,3.3735,3.3794,3.3761,3.3772,3.3769,3.3765,3.3779,3.3792,3.3628,3.3627,3.3626,0,0,3.442,3.4374,3.4381,3.4337,3.427,3.4211,3.4213,3.4128,3.4092,3.4077,3.3994,3.3974,3.3923,3.3878,3.3849,3.3932,3.3869,3.3923,3.3995,3.3996,3.4008,3.4018,3.4043,3.4054,3.3928,3.3928,3.3928,0,3.4505,3.4475,3.4392,3.4381,3.4353,3.4255,3.4259,3.4221,3.4146,3.4128,3.4092,3.4023,3.3972,3.396,3.398,3.3961,3.3957,3.3931,3.4013,3.4022,3.403,3.4053,3.4063,3.3935,3.3934,3.3933,3.3933,0,3.4581,3.4561,3.4575,3.4504,3.4478,3.4476,3.4389,3.4373,3.4318,3.4262,3.4245,3.418,3.4129,3.4123,3.407,3.4102,3.4082,3.4032,3.3967,3.4052,3.4072,3.408,3.3945,3.3942,3.394,3.3939,0,0,3.4761,3.4644,3.465,3.4615,3.4533,3.4515,3.4506,3.4457,3.4442,3.4394,3.4382,3.4339,3.429,3.4257,3.4198,3.42,3.4264,3.4147,3.4144,3.4168,3.429,3.4326,3.4338,3.4223,3.4224,3.4225,3.4294,0,3.4847,3.4826,3.475,3.4751,3.4729,3.4635,3.4627,3.4574,3.4521,3.4494,3.4434,3.4404,3.4344,3.4323,3.4321,3.4257,3.4286,3.4251,3.4207,3.4206,3.4223,3.4349,3.4388,3.4456,3.4301,3.4303,3.4304,0,3.4943,3.49,3.49,3.4815,3.4803,3.4797,3.4743,3.472,3.4657,3.4617,3.458,3.4513,3.4495,3.4438,3.441,3.4387,3.4365,3.433,3.4331,3.4321,3.4258,3.4339,3.4476,3.4485,3.4316,3.4315,3.4314,0,3.507,3.5012,3.5003,3.4977,3.4879,3.4876,3.4835,3.477,3.4744,3.4697,3.4678,3.463,3.4603,3.4566,3.4486,3.4452,3.4466,3.4402,3.4429,3.4431,3.4434,3.4435,3.4566,3.4426,3.4426,3.4426,3.4426,0,3.5171,3.5173,3.5058,3.5052,3.5051,3.4962,3.4963,3.4912,3.4854,3.4835,3.4751,3.4734,3.4632,3.4603,3.4541,3.4525,3.4514,3.4479,3.4462,3.4485,3.4489,3.4466,3.4458,3.4428,3.4428,3.4427,3.4427,0,3.5311,3.5235,3.5218,3.5127,3.5103,3.5106,3.5026,3.5015,3.4957,3.4933,3.4923,3.483,3.4791,3.4709,3.4647,3.4605,3.4602,3.4574,3.4623,3.4612,3.4642,3.4639,3.4761,3.477,3.4629,3.4631,3.4632,0,3.5379,3.5379,3.5287,3.5268,3.523,3.5202,3.5174,3.5087,3.5061,3.4988,3.4985,3.4939,3.4898,3.4839,3.4764,3.4716,3.4683,3.4729,3.4675,3.4697,3.4679,3.4678,3.4676,3.474,3.4742,3.4744,3.4745,0,3.5506,3.5468,3.5433,3.5384,3.5353,3.531,3.5262,3.5251,3.5151,3.5127,3.5086,3.5054,3.499,3.4944,3.4883,3.4838,3.4774,3.4763,3.4766,3.4788,3.4815,3.4796,3.4652,3.476,3.4759,3.4758,3.4757,3.4756,3.5609,3.5603,3.5536,3.5499,3.5454,3.541,3.5394,3.5334,3.5299,3.524,3.519,3.5153,3.5086,3.4998,3.4957,3.4924,3.4893,3.4899,3.4899,3.4901,3.4909,3.4823,3.4913,3.4913,3.4912,3.4912,3.4911,0,3.5728,3.5681,3.5647,3.5583,3.5552,3.5497,3.544,3.5417,3.5386,3.533,3.529,3.5241,3.5195,3.5118,3.5064,3.5053,3.5022,3.5041,3.5039,3.5029,3.4942,3.4942,3.5067,3.5067,3.5067,3.5067,3.5067,3.5067,3.5786,3.5771,3.5725,3.5685,3.5637,3.56,3.5572,3.553,3.5485,3.5434,3.5396,3.5346,3.5279,3.522,3.5175,3.5152,3.5135,3.5163,3.5132,3.5051,3.5036,3.5022,3.5022,3.5161,3.5162,3.5221,3.5222,3.5222]},{"header":{"parameterUnit":"m.s-1","parameterCategory":1,"la1":30.2991,"la2":30.254,"lo1":-89.0895,"lo2":-89.0444,"dy":0.0017,"dx":0.0017,"nx":28,"ny":28,"refTime":"2025-08-28T09:00:00:Z","depth":0,"parameterNumber":3,"parameterNumberName":"V-component_of_WINDS"},"data":[0,0,0,0,0,0,0,0,0,0,0,0,0,0,0,0,0,0,0,0,0,0,0,0,0,0,0,0,0,0,0,0,0,0,0,0,0,0,0,0,0,0,0,0,0,0,0,0,0,0,0,0,0,0,0,0,0,0,6.5948,6.5951,0,6.6217,6.622,6.6224,6.625,6.6247,6.6245,6.6242,6.6516,6.6526,6.6535,0,0,0,0,0,0,0,0,0,0,0,0,0,6.545,6.5459,6.5947,6.5951,6.5954,6.6217,6.6221,6.6224,6.6251,6.6247,6.6244,6.6241,6.6513,6.6524,6.6536,0,0,0,0,0,0,0,0,0,0,0,0,0,6.5688,6.5462,6.5947,6.5999,6.6006,6.6216,6.6221,6.6225,6.6251,6.6247,6.6243,6.6239,6.6509,6.6523,6.6538,6.6714,0,0,6.6583,6.659,0,0,0,0,0,0,0,0,6.5674,6.5706,6.5988,6.5996,6.6004,6.6196,6.6146,6.6389,6.6252,6.6158,6.6242,6.6237,6.6413,6.6435,6.6495,6.6726,6.6738,6.6585,6.6594,6.66,6.6604,0,0,0,0,0,0,0,6.5658,6.5694,6.6054,6.5992,6.6002,6.6007,6.6037,6.6192,6.6306,6.6166,6.6169,6.62,6.6416,6.6481,6.6502,6.6742,6.6584,6.6597,6.6607,6.6612,6.7128,6.7132,0,0,0,0,0,0,6.5632,6.5681,6.6046,6.6062,6.5826,6.602,6.6052,6.6139,6.6304,6.6325,6.6204,6.6201,6.6457,6.6484,6.6511,6.6726,6.66,6.6614,6.6622,6.7123,6.7129,6.7134,0,0,0,0,0,0,6.5621,6.5664,6.6035,6.5872,6.592,6.6033,6.6129,6.6146,6.6211,6.6333,6.6352,6.6249,6.6455,6.649,6.6663,6.6736,6.6621,6.6634,6.7117,6.7125,6.7131,6.7158,0,0,0,0,0,0,6.5607,6.566,6.573,6.5874,6.5928,6.6183,6.6134,6.6154,6.6236,6.6235,6.638,6.64,6.6455,6.664,6.6677,6.6754,6.6646,6.7111,6.7121,6.7129,6.7151,6.7165,6.7177,0,0,0,0,0,6.5589,6.5726,6.5733,6.5777,6.6017,6.6187,6.6218,6.6279,6.6242,6.6312,6.6389,6.6396,6.6722,6.6658,6.67,6.6782,6.7107,6.7118,6.7128,6.7145,6.7162,6.7177,0,0,0,0,0,0,6.5588,6.5746,6.5755,6.5944,6.6052,6.6191,6.6281,6.6296,6.6416,6.6409,6.6478,6.6511,6.668,6.6748,6.6674,6.6959,6.691,6.693,6.6909,6.6926,6.6939,6.6919,6.6658,0,0,0,0,0,6.561,6.5735,6.5866,6.602,6.6074,6.6168,6.6244,6.6281,6.6395,6.6441,6.6532,6.6642,6.6769,6.6851,6.6975,6.716,6.7191,6.7238,6.7251,6.7261,6.7277,6.7378,6.7399,6.7169,6.7169,6.7169,0,0,6.5656,6.5758,6.5833,6.6022,6.611,6.6237,6.6206,6.6343,6.6437,6.6462,6.663,6.6699,6.6826,6.7005,6.7089,6.7068,6.7347,6.7275,6.7282,6.7293,6.7391,6.7413,6.7432,6.7177,6.7175,6.7174,0,0,6.5805,6.5895,6.6032,6.612,6.6254,6.6315,6.6348,6.6485,6.6532,6.6702,6.6722,6.6835,6.7053,6.7142,6.7215,6.7394,6.7404,6.7432,6.7501,6.7598,6.7617,6.7633,6.7695,6.7717,6.7448,6.7448,6.7448,0,6.5845,6.6039,6.61,6.6236,6.6317,6.6345,6.6483,6.6565,6.6732,6.6787,6.6761,6.7033,6.7121,6.732,6.7363,6.7422,6.746,6.7417,6.7609,6.7626,6.7642,6.7703,6.7726,6.7451,6.745,6.745,6.745,0,6.6081,6.6214,6.6308,6.6469,6.6561,6.6696,6.6777,6.6862,6.689,6.6953,6.7124,6.7229,6.7374,6.7424,6.7453,6.7626,6.7609,6.7595,6.7548,6.7666,6.7723,6.7747,6.7454,6.7454,6.7453,6.7452,0,0,6.6239,6.6429,6.6463,6.6535,6.6683,6.6786,6.6922,6.7063,6.7134,6.7247,6.7362,6.7544,6.7532,6.7615,6.7654,6.7739,6.7872,6.7715,6.7719,6.774,6.8067,6.8076,6.8102,6.7879,6.7883,6.7887,6.8056,0,6.6404,6.6648,6.6706,6.6914,6.7036,6.7063,6.718,6.7282,6.7344,6.7456,6.7524,6.7652,6.7627,6.7677,6.7762,6.7838,6.7939,6.7826,6.7984,6.7989,6.7952,6.8133,6.8144,6.8299,6.8079,6.8083,6.8086,0,6.663,6.6748,6.6968,6.7097,6.7151,6.7256,6.7389,6.7496,6.7611,6.765,6.7742,6.7771,6.7911,6.7855,6.8048,6.797,6.8038,6.8084,6.8091,6.8109,6.8045,6.8154,6.835,6.8372,6.8122,6.812,6.8117,0,6.6722,6.6935,6.7094,6.7155,6.731,6.7383,6.745,6.7562,6.7642,6.7757,6.781,6.794,6.8011,6.811,6.8173,6.8127,6.836,6.831,6.8395,6.8393,6.8443,6.8439,6.8652,6.8487,6.8487,6.8486,6.8486,0,6.69,6.7033,6.7137,6.7235,6.7384,6.7447,6.7593,6.7661,6.7759,6.7869,6.7899,6.8001,6.8078,6.819,6.824,6.8391,6.8423,6.8457,6.8468,6.8454,6.845,6.85,6.849,6.8493,6.8491,6.849,6.8489,0,6.7028,6.7103,6.7278,6.7409,6.7445,6.7549,6.7661,6.7756,6.7817,6.7956,6.7992,6.8088,6.8221,6.8294,6.8461,6.8494,6.8662,6.8668,6.8624,6.8629,6.8709,6.87,6.8961,6.8997,6.8808,6.881,6.8812,0,6.7137,6.724,6.7382,6.7458,6.7527,6.7649,6.7731,6.7796,6.788,6.8017,6.8095,6.823,6.8341,6.8553,6.8637,6.8764,6.8773,6.8855,6.8792,6.8774,6.8773,6.8766,6.8776,6.8866,6.8868,6.887,6.8871,0,6.7322,6.7353,6.747,6.76,6.7697,6.7802,6.7906,6.7966,6.8048,6.814,6.8277,6.8363,6.8533,6.8666,6.8799,6.8867,6.8882,6.889,6.8916,6.8902,6.8872,6.8888,6.8653,6.8884,6.8882,6.8881,6.8881,6.888,6.7444,6.7535,6.7649,6.7778,6.7863,6.7958,6.8053,6.8126,6.8241,6.8385,6.8416,6.8559,6.8669,6.8849,6.8921,6.9033,6.9017,6.9055,6.9065,6.9073,6.9075,6.8853,6.9058,6.9057,6.9057,6.9057,6.9057,0,6.7629,6.7703,6.782,6.7964,6.8065,6.807,6.8185,6.8268,6.8394,6.8496,6.8604,6.876,6.8888,6.8981,6.9111,6.9183,6.9193,6.9215,6.921,6.9225,6.9083,6.9047,6.9204,6.9204,6.9204,6.9204,6.9204,6.9204,6.7737,6.7892,6.7936,6.8132,6.8205,6.8346,6.8411,6.8498,6.8579,6.8752,6.8858,6.8918,6.9016,6.9153,6.927,6.9294,6.934,6.9361,6.9385,6.9251,6.9235,6.922,6.9187,6.9371,6.9371,6.9518,6.9519,6.952]}]]